| time (UTC) | temp C | wind direction | speed KPH | gust KPH | rain 1hr cm | rain 24hr cm | rain mn cm | humidity % | barometer mb |
| 20260504081557 | 8 | 115 | 6.4 | 17.7 | 0.00 | 0.00 | 0.00 | 58 | 1015.8 |
| 20260504044553 | 12 | 17 | 6.4 | 22.5 | 0.00 | 0.00 | 0.00 | 41 | 1011.0 |
| 20260504043057 | 12 | 51 | 3.2 | 9.7 | 0.00 | 0.00 | 0.00 | 40 | 1010.5 |
| 20260504041549 | 13 | 30 | 1.6 | 8.0 | 0.00 | 0.00 | 0.00 | 39 | 1010.2 |
| 20260504040054 | 13 | 63 | 3.2 | 12.9 | 0.00 | 0.00 | 0.00 | 39 | 1009.8 |
| 20260504034556 | 13 | 39 | 3.2 | 11.3 | 0.00 | 0.00 | 0.00 | 38 | 1009.5 |
| 20260504033049 | 14 | 36 | 1.6 | 8.0 | 0.00 | 0.00 | 0.00 | 38 | 1009.2 |
| 20260504031552 | 14 | 30 | 4.8 | 9.7 | 0.00 | 0.00 | 0.00 | 37 | 1009.0 |
| 20260504030051 | 15 | 4 | 3.2 | 11.3 | 0.00 | 0.00 | 0.00 | 35 | 1008.7 |
| 20260504024552 | 16 | 74 | 3.2 | 11.3 | 0.00 | 0.00 | 0.00 | 32 | 1008.3 |
| 20260504023049 | 17 | 56 | 1.6 | 16.1 | 0.00 | 0.00 | 0.00 | 27 | 1008.2 |
| 20260504021552 | 18 | 18 | 0.0 | 3.2 | 0.00 | 0.00 | 0.00 | 22 | 1008.1 |
| 20260504020058 | 19 | 336 | 1.6 | 8.0 | 0.00 | 0.00 | 0.00 | 21 | 1008.2 |
| 20260504014559 | 20 | 15 | 3.2 | 9.7 | 0.00 | 0.00 | 0.00 | 20 | 1008.3 |
| 20260504013108 | 21 | 323 | 4.8 | 11.3 | 0.00 | 0.00 | 0.00 | 19 | 1008.3 |
| 20260504011552 | 22 | 273 | 4.8 | 12.9 | 0.00 | 0.00 | 0.00 | 19 | 1008.3 |
| 20260504010050 | 22 | 63 | 4.8 | 12.9 | 0.00 | 0.00 | 0.00 | 19 | 1008.3 |
| 20260504004546 | 22 | 304 | 4.8 | 9.7 | 0.00 | 0.00 | 0.00 | 18 | 1008.5 |
| 20260504003048 | 23 | 317 | 8.0 | 20.9 | 0.00 | 0.00 | 0.00 | 18 | 1008.6 |
| 20260504001552 | 23 | 210 | 6.4 | 16.1 | 0.00 | 0.00 | 0.00 | 18 | 1008.7 |
| 20260504000049 | 23 | 294 | 11.3 | 17.7 | 0.00 | 0.00 | 0.00 | 17 | 1008.8 |
| 20260503234549 | 23 | 340 | 8.0 | 20.9 | 0.00 | 0.00 | 0.00 | 18 | 1008.8 |
| 20260503233049 | 23 | 293 | 8.0 | 16.1 | 0.00 | 0.00 | 0.00 | 18 | 1008.9 |
| 20260503231554 | 23 | 29 | 11.3 | 27.4 | 0.00 | 0.00 | 0.00 | 17 | 1009.0 |
| 20260503230052 | 23 | 298 | 9.7 | 20.9 | 0.00 | 0.00 | 0.00 | 17 | 1009.0 |
| 20260503224558 | 23 | 319 | 8.0 | 25.7 | 0.00 | 0.00 | 0.00 | 18 | 1009.2 |
| 20260503223050 | 23 | 288 | 8.0 | 24.1 | 0.00 | 0.00 | 0.00 | 19 | 1009.3 |
| 20260503221559 | 23 | 262 | 11.3 | 24.1 | 0.00 | 0.00 | 0.00 | 18 | 1009.5 |
| 20260503220052 | 23 | 274 | 11.3 | 32.2 | 0.00 | 0.00 | 0.00 | 18 | 1009.8 |
| 20260503214559 | 23 | 304 | 11.3 | 25.7 | 0.00 | 0.00 | 0.00 | 18 | 1009.9 |
| 20260503213050 | 23 | 326 | 11.3 | 22.5 | 0.00 | 0.00 | 0.00 | 18 | 1010.0 |
| 20260503211556 | 22 | 281 | 6.4 | 27.4 | 0.00 | 0.00 | 0.00 | 19 | 1010.4 |
| 20260503210053 | 23 | 311 | 9.7 | 20.9 | 0.00 | 0.00 | 0.00 | 18 | 1010.8 |
| 20260503204609 | 22 | 277 | 8.0 | 20.9 | 0.00 | 0.00 | 0.00 | 19 | 1010.8 |
| 20260503203054 | 22 | 285 | 9.7 | 25.7 | 0.00 | 0.00 | 0.00 | 19 | 1010.9 |
| 20260503201549 | 22 | 345 | 11.3 | 24.1 | 0.00 | 0.00 | 0.00 | 20 | 1011.2 |
| 20260503200053 | 22 | 274 | 14.5 | 22.5 | 0.00 | 0.00 | 0.00 | 20 | 1011.5 |
| 20260503194549 | 22 | 281 | 12.9 | 24.1 | 0.00 | 0.00 | 0.00 | 19 | 1011.6 |
| 20260503193059 | 22 | 359 | 6.4 | 20.9 | 0.00 | 0.00 | 0.00 | 20 | 1011.6 |
| 20260503191610 | 22 | 255 | 8.0 | 22.5 | 0.00 | 0.00 | 0.00 | 19 | 1011.9 |
| 20260503190051 | 21 | 274 | 8.0 | 20.9 | 0.00 | 0.00 | 0.00 | 19 | 1012.1 |
| 20260503184550 | 21 | 259 | 6.4 | 22.5 | 0.00 | 0.00 | 0.00 | 20 | 1012.2 |
| 20260503183052 | 21 | 284 | 4.8 | 22.5 | 0.00 | 0.00 | 0.00 | 21 | 1012.3 |
| 20260503181552 | 21 | 270 | 11.3 | 29.0 | 0.00 | 0.00 | 0.00 | 21 | 1012.7 |
| 20260503180056 | 21 | 274 | 11.3 | 27.4 | 0.00 | 0.00 | 0.00 | 21 | 1012.9 |
| 20260503174555 | 21 | 284 | 8.0 | 20.9 | 0.00 | 0.00 | 0.00 | 23 | 1013.2 |
| 20260503173051 | 21 | 304 | 4.8 | 12.9 | 0.00 | 0.00 | 0.00 | 25 | 1013.2 |
| 20260503171550 | 20 | 359 | 3.2 | 9.7 | 0.00 | 0.00 | 0.00 | 29 | 1013.2 |